Location: Long Geng
(2.6167°N, 114.1333°E)
Time: 23:22:06
(UTC+00:00)

OAO 3 Rocket - Pass Details

Date: 14 May 2021
Orbit: 628 x 683 km, 35.0° (Epoch: 12 June)

Event Time Altitude Azimuth Distance (km) Brightness Sun altitude
Exits shadow 20:57:25 35° 269° (W) 1,069 3.8 -18.5°
Maximum altitude 20:59:02 50° 217° (SW) 849 3.4 -18.2°
Drops below altitude 10° 21:03:49 10° 142° (SE) 2,107 6.0 -17.0°
Sets 21:06:17 0° 137° (SE) 3,026 6.9 -16.5°
